This demonstration page uses our WeatherBlox Daily Observations layout. Learn more.

Left ArrowRight Arrow

Hourly Observations for March 11, 2018

Temp ( °F °C ) Dew Point ( °F °C ) Humidity (%) Winds ( mph kmh ) Pressure ( in mb ) Visibility ( mi km ) Precip ( " mm )
12:15 am 00:15 Clear 34 1 23 -5 65 65 N 7 11 30.12 1020 10 16 N/A
12:35 am 00:35 Clear 34 1 23 -5 65 65 N N/A 30.12 1020 10 16 N/A
12:50 am 00:50 Clear 34 1 23 -5 65 65 N 5 7 30.12 1020 10 16 N/A
1:15 am 01:15 Clear 34 1 23 -5 65 65 N 8 13 30.15 1021 10 16 N/A
1:35 am 01:35 Clear 34 1 23 -5 65 65 N 7 11 30.15 1021 10 16 N/A
1:50 am 01:50 Clear 34 1 23 -5 65 65 N 8 13 30.15 1021 10 16 N/A
3:15 am 03:15 Clear 32 undefined 23 -5 69 69 N 6 9 30.15 1021 10 16 N/A
3:35 am 03:35 Clear 32 undefined 23 -5 69 69 N 5 7 30.15 1021 10 16 N/A
3:50 am 03:50 Clear 32 undefined 23 -5 69 69 NNW 5 7 30.15 1021 10 16 N/A
4:15 am 04:15 Clear 30 -1 23 -5 75 75 NNW 3 6 30.15 1021 10 16 N/A
4:35 am 04:35 Clear 32 undefined 23 -5 69 69 NNW 5 7 30.15 1021 10 16 N/A
4:50 am 04:50 Clear 32 undefined 23 -5 69 69 NNW 6 9 30.15 1021 10 16 N/A
5:15 am 05:15 Clear 32 undefined 23 -5 69 69 N 6 9 30.15 1021 10 16 N/A
5:35 am 05:35 Clear 32 undefined 21 -6 64 64 N 6 9 30.15 1021 10 16 N/A
5:50 am 05:50 Clear 32 undefined 21 -6 64 64 N 5 7 30.15 1021 10 16 N/A
6:15 am 06:15 Clear 30 -1 21 -6 69 69 N N/A 30.18 1022 10 16 N/A
6:35 am 06:35 Clear 27 -3 23 -5 86 86 NW 5 7 30.18 1022 10 16 N/A
6:50 am 06:50 Clear 28 -2 23 -5 80 80 WNW 6 9 30.18 1022 10 16 N/A
7:15 am 07:15 Clear 28 -2 23 -5 80 80 NW 5 7 30.18 1022 10 16 N/A
7:35 am 07:35 Sunny 30 -1 21 -6 69 69 NW 3 6 30.18 1022 10 16 N/A
7:50 am 07:50 Sunny 28 -2 23 -5 80 80 NW 3 6 30.21 1023 10 16 N/A
8:15 am 08:15 Sunny 30 -1 23 -5 75 75 NNW 5 7 30.21 1023 10 16 N/A
8:35 am 08:35 Sunny 32 undefined 23 -5 69 69 N 7 11 30.21 1023 10 16 N/A
8:50 am 08:50 Sunny 32 undefined 23 -5 69 69 N 6 9 30.18 1022 10 16 N/A
9:15 am 09:15 Sunny 34 1 23 -5 65 65 N 7 11 30.18 1022 10 16 N/A
9:35 am 09:35 Sunny 36 2 23 -5 60 60 N 6 9 30.18 1022 10 16 N/A
9:50 am 09:50 Sunny 36 2 21 -6 56 56 N 6 9 30.21 1023 10 16 N/A
10:15 am 10:15 Sunny 37 3 21 -6 52 52 N 6 9 30.21 1023 10 16 N/A
10:35 am 10:35 Sunny 37 3 21 -6 52 52 NNE 7 11 30.21 1023 10 16 N/A
10:50 am 10:50 Sunny 37 3 21 -6 52 52 N 7 11 30.18 1022 10 16 N/A
11:15 am 11:15 Sunny 39 4 21 -6 48 48 NNE 7 11 30.18 1022 10 16 N/A
11:35 am 11:35 Sunny 41 5 23 -5 49 49 NNW 8 13 30.18 1022 10 16 N/A
11:50 am 11:50 Sunny 41 5 23 -5 49 49 N 3 6 30.18 1022 10 16 N/A
12:15 pm 12:15 Sunny 41 5 23 -5 49 49 N N/A 30.18 1022 10 16 N/A
12:35 pm 12:35 Sunny 43 6 23 -5 46 46 W 8 13 30.18 1022 10 16 N/A
12:50 pm 12:50 Sunny 43 6 23 -5 46 46 NW 5 7 30.18 1022 10 16 N/A
1:15 pm 13:15 Sunny 45 7 23 -5 42 42 N N/A 30.15 1021 10 16 N/A
1:35 pm 13:35 Sunny 45 7 25 -4 46 46 SSW 7 11 30.15 1021 10 16 N/A
1:50 pm 13:50 Sunny 45 7 23 -5 42 42 N N/A 30.12 1020 10 16 N/A
2:15 pm 14:15 Sunny 46 8 25 -4 43 43 W 5 7 30.12 1020 10 16 N/A
2:35 pm 14:35 Sunny 46 8 27 -3 46 46 N 3 6 30.12 1020 10 16 N/A
2:50 pm 14:50 Sunny 48 9 27 -3 43 43 N N/A 30.12 1020 10 16 N/A
3:15 pm 15:15 Sunny 48 9 27 -3 43 43 NNE 6 9 30.09 1019 10 16 N/A
3:35 pm 15:35 Sunny 46 8 25 -4 43 43 N N/A 30.09 1019 10 16 N/A
3:55 pm 15:55 Sunny 48 9 25 -4 40 40 N N/A 30.09 1019 10 16 N/A
4:15 pm 16:15 Sunny 50 10 25 -4 37 37 NW 7 11 30.09 1019 10 16 N/A
4:35 pm 16:35 Sunny 50 10 25 -4 37 37 NNE 5 7 30.09 1019 10 16 N/A
4:55 pm 16:55 Sunny 48 9 23 -5 37 37 N N/A 30.09 1019 10 16 N/A
5:15 pm 17:15 Sunny 50 10 23 -5 35 35 N N/A 30.09 1019 10 16 N/A
5:35 pm 17:35 Sunny 50 10 23 -5 35 35 N 5 7 30.03 1017 10 16 N/A
5:55 pm 17:55 Sunny 50 10 23 -5 35 35 NW 5 7 30.09 1019 10 16 N/A
6:15 pm 18:15 Sunny 50 10 21 -6 32 32 NNE 5 7 30.09 1019 10 16 N/A
6:35 pm 18:35 Sunny 48 9 21 -6 34 34 NE 6 9 30.09 1019 10 16 N/A
6:55 pm 18:55 Sunny 46 8 23 -5 40 40 NE 6 9 30.09 1019 10 16 N/A
7:15 pm 19:15 Clear 46 8 21 -6 37 37 NE 6 9 30.09 1019 10 16 N/A
7:35 pm 19:35 Clear 45 7 23 -5 42 42 NE 6 9 30.09 1019 10 16 N/A
7:55 pm 19:55 Clear 43 6 23 -5 46 46 NE 7 11 30.09 1019 10 16 N/A
8:15 pm 20:15 Clear 43 6 23 -5 46 46 NE 5 7 30.09 1019 10 16 N/A
8:35 pm 20:35 Clear 43 6 23 -5 46 46 NE 3 6 30.09 1019 10 16 N/A
8:55 pm 20:55 Clear 43 6 23 -5 46 46 N N/A 30.09 1019 10 16 N/A
9:15 pm 21:15 Clear 39 4 23 -5 52 52 N 3 6 30.09 1019 10 16 N/A
9:35 pm 21:35 Clear 41 5 23 -5 49 49 NNE 3 6 30.09 1019 10 16 N/A
9:55 pm 21:55 Clear 41 5 23 -5 49 49 NNE 3 6 30.09 1019 10 16 N/A
10:15 pm 22:15 Clear 39 4 23 -5 52 52 NNE 3 6 30.09 1019 10 16 N/A
10:35 pm 22:35 Clear 39 4 23 -5 52 52 NNE 6 9 30.09 1019 10 16 N/A
10:55 pm 22:55 Clear 39 4 21 -6 48 48 N N/A 30.09 1019 10 16 N/A
11:15 pm 23:15 Clear 36 2 23 -5 60 60 NE 3 6 30.09 1019 10 16 N/A
11:35 pm 23:35 Clear 37 3 23 -5 56 56 NE 3 6 30.09 1019 10 16 N/A
11:55 pm 23:55 Clear 36 2 23 -5 60 60 NE 5 7 30.09 1019 10 16 N/A

Powered by AerisWeather